Location: Elliott Corner
(37.4627°N, 119.7746°W)
Time: 23:55:14
(UTC+00:00)

Cosmos 2285 Rocket - Pass Details

Date: 10 September 2024
Orbit: 971 x 997 km, 74.0° (Epoch: 13 October)

Event Time Altitude Azimuth Distance (km) Brightness Sun altitude
Exits shadow 12:46:46 - 212° (SSW) 3,502 6.5 -10.7°
Reaches altitude 10° 12:48:52 10° 216° (SW) 2,748 5.9 -10.3°
Maximum altitude 12:55:04 52° 292° (WNW) 1,215 4.2 -9.1°
Drops below altitude 10° 13:01:16 10° 8° (N) 2,746 6.6 -7.9°
Sets 13:03:54 0° 14° (NNE) 3,693 7.4 -7.4°
